weather.gov     
National Weather Service

Regional Weather Roundup
NWS Homepage
This page is being discontinued on March 12, 2014.
The same data is available at this site. Please update your bookmarks.
Thank you, and we apologize for the inconvenience.
Please send an email to SR-SRH.Webmaster@noaa.gov with any concerns.


Current Version
Previous Version:    01  02  03  04  05  06  07  08  09  10  11  12  13  14  15  16  17  18  19  20  21  22  23  24  25  26  27  28  29  30  
   31  32  33  34  35  36  37  38  39  40  41  42  43  44  45  46  47  48  49  50  51  52  53  54  55  56  57  58  59  60  
[Printable]
618
ASUS46 KLOX 281312
RWRCA

SOUTHERN CALIFORNIA WEATHER ROUNDUP
NATIONAL WEATHER SERVICE OXNARD CALIFORNIA
500 AM PST FRI NOV 28 2014

NOTE: "FAIR" INDICATES FEW OR NO CLOUDS BELOW 12,000 FEET WITH NO
SIGNIFICANT WEATHER AND/OR OBSTRUCTIONS TO VISIBILITY.

  -  STATIONS PRECEEDED BY AN ASTERISK (*) ARE NOT NWS OR FAA
     STATIONS AND ARE NOT SUBJECT TO NWS AND FAA QUALITY CONTROL.

CAZ041-042-087-281400-
LA AND ORANGE COUNTY COASTAL AREAS


CITY           SKY/WX    TMP DP  RH WIND       PRES   REMARKS
L.A. DOWNTOWN  CLEAR     54  34  46 CALM      29.97F
L.A. AIRPORT   CLEAR     57  37  47 CALM      29.98S
LONG BEACH     PTCLDY    52  42  69 CALM      29.97S

CITY           SKY/WX    TMP DP  RH WIND       PRES   REMARKS
AVALON           N/A     54 N/A N/A MISG        N/A
FULLERTON      CLEAR     51  35  54 CALM      29.97S
*GETTY CENTER    N/A     70  16  12 NE3         N/A
HAWTHORNE      CLEAR     54  44  69 CALM      29.98S
*LEO CARRILLO    N/A     60  20  21 N6          N/A
*LOS ALAMITOS  FAIR      49  39  67 NE2       29.97F
*REDONDO BEACH   N/A     49  40  70 CALM      29.96S
SANTA ANA      CLEAR     54  38  54 CALM      29.97F
STA MONICA APT CLEAR     56  33  42 NE5       29.97F
*STA MON PIER    N/A     59  33  36 NW2       29.96F

$$

CAZ547-548-048-281400-
LA COUNTY VALLEYS AND INLAND EMPIRE


CITY           SKY/WX    TMP DP  RH WIND       PRES   REMARKS
BURBANK        CLEAR     51  27  39 CALM      29.98F
VAN NUYS       CLEAR     50  33  52 CALM      29.99S

CITY           SKY/WX    TMP DP  RH WIND       PRES   REMARKS
CORONA AIRPORT SUNNY     35  28  76 CALM      30.01S
*CHATSWORTH      N/A     52  31  45 CALM      29.96F
CHINO          CLEAR     45  34  65 CALM      30.01F
MARCH AFB      CLEAR     41  17  38 CALM      30.02S
*NORTHRIDGE      N/A     52  27  37 CALM        N/A
ONTARIO        PTCLDY    55  28  35 NE3       30.00F
*PASADENA        N/A     57  27  30 CALM        N/A
RIVERSIDE      CLEAR     50  29  44 E3        30.01S
SAN BERNARDINO NOT AVBL
*SAN RAFAEL HI   N/A     71   4   7 CALM        N/A
*SAUGUS          N/A     52  15  23 E5          N/A
*WHITEMAN AP   NOT AVBL
*WOODLAND HILL   N/A     46  28  49 S1          N/A

$$

CAZ054-055-281400-
LA AND SAN BERNARDINO COUNTY MOUNTAINS


CITY           SKY/WX    TMP DP  RH WIND       PRES   REMARKS
*BIG BEAR AIRP SUNNY     25  10  54 CALM      30.27S
MT WILSON NWS    N/A     57   0   9 MISG        N/A
SANDBERG       CLEAR     64  10  12 S7        30.14F

$$

CAZ028-029-059-060-099-281400-
ANTELOPE VALLEY AND SURROUNDING AREAS


CITY           SKY/WX    TMP DP  RH WIND       PRES   REMARKS
LANCASTER      CLEAR     30  12  47 W5        30.10S WCI  25
PALMDALE       PTCLDY    36  16  44 CALM      30.09F
*POPPY PARK      N/A     43  18  36 W3          N/A

CITY           SKY/WX    TMP DP  RH WIND       PRES   REMARKS
29 PALMS       CLEAR     44  14  29 NW8       30.14S
BARSTOW/DAGGET CLEAR     41  11  29 W5        30.08F
BISHOP         CLEAR     25  12  58 VRB7      30.12F WCI  17
CHINA LAKE     CLEAR     34  11  38 CALM      30.08S
EDWARDS AFB    CLEAR     29   0  28 CALM      30.08S
MOJAVE         FAIR      39  10  30 NW3       30.09S
NEEDLES        CLEAR     47  20  34 W5        30.07R
VICTORVILLE      N/A     37  10  32 S8        30.08F WCI  31

$$

CAZ039-040-281400-
VENTURA AND SANTA BARBARA COUNTY COAST


CITY           SKY/WX    TMP DP  RH WIND       PRES   REMARKS
CAMARILLO      CLEAR     50  33  52 CALM      29.97S
NWS OXNARD       N/A     52  27  37 CALM      29.96S
OXNARD AIRPORT CLEAR     60  25  26 CALM      29.97S
*POINT MUGU    CLEAR     49  36  61 CALM      29.98S
SBA APT/GOLETA CLEAR     46  38  73 CALM      29.96F
*SANTA BARBARA   N/A     51  37  59 CALM      30.04S
*VENTURA         N/A     62  27  26 N3        30.02S

$$

CAZ044-045-281400-
VENTURA COUNTY VALLEYS


CITY           SKY/WX    TMP DP  RH WIND       PRES   REMARKS
*SIMI VALLEY     N/A     56  29  35 CALM      29.94S
*OJAI            N/A     41  33  73 CALM      29.97R
*FILLMORE        N/A     44  32  64 CALM      29.89F

$$

CAZ053-281400-
VENTURA COUNTY MOUNTAINS


CITY           SKY/WX    TMP DP  RH WIND       PRES   REMARKS
*LOCKWOOD VLY    N/A     27  10  50 MISG        N/A
*ROSE VALLEY     N/A     25  19  80 MISG        N/A

$$

CAZ034-035-036-281400-
CENTRAL COAST AND SANTA YNEZ VALLEY


CITY           SKY/WX    TMP DP  RH WIND       PRES   REMARKS
SAN LUIS OBISP CLEAR     41  37  86 CALM      30.01S
SANTA MARIA    CLEAR     45  39  79 S5        30.00F

CITY           SKY/WX    TMP DP  RH WIND       PRES   REMARKS
*CAL POLY SLO    N/A     41  37  87 CALM        N/A
*LOMPOC        CLEAR     36  30  80 E6        30.00F WCI  31
*PISMO BEACH     N/A     46  42  88 NE3       30.01S
*SANTA YNEZ    FAIR      43  32  65 CALM      30.00F

$$

CAZ037-038-051-281400-
SAN LUIS OBISPO COUNTY INTERIOR AND CUYAMA VALLEY


CITY           SKY/WX    TMP DP  RH WIND       PRES   REMARKS
*CUYAMA          N/A     42  26  51 SE6       30.01S
PASO ROBLES    CLEAR     37  31  78 S3        30.04F

$$

CAZ032-033-061-281400-
SOUTHERN DESERTS


CITY           SKY/WX    TMP DP  RH WIND       PRES   REMARKS
BLYTHE         CLEAR     51  21  30 CALM      30.02F
IMPERIAL       CLEAR     47  28  47 SW5       29.98S
PALM SPRINGS   CLEAR     56  22  26 NW9       30.01S
THERMAL        CLEAR     40  29  64 N5        29.97F

$$

ELSEWHERE ACROSS THE WESTERN UNITED STATES AND MEXICO


CITY           SKY/WX    TMP DP  RH WIND       PRES   REMARKS
DENVER, CO     CLOUDY    47  13  25 S7        29.96F
GRAND CANYON,  MOCLDY    15   3  59 CALM      30.28S
HONOLULU, HI   PTCLDY    73  61  64 E18G24    30.02F
KAHULUI, MAUI  CLOUDY    73  64  73 NE15      30.03F
LAKE TAHOE, CA CLEAR     53 -10   7 S22G38    30.08F
LAS VEGAS, NV  PTCLDY    43  20  39 S7        30.07S
MAMMOTH LAKES, FAIR      39   7  26 SE8       30.19F WCI  34
MEXICO CITY, M PTCLDY    37  32  81 E6        30.43R WCI  33
PHOENIX, AZ    CLEAR     56  26  31 E5        30.03S
PORTLAND, OR   LGT RAIN  53  51  93 S12G18    29.71F
RENO, NV       PTCLDY    40   9  28 N7        30.00F
SALT LAKE CITY CLOUDY    44  24  45 SE8       30.02F
SAN DIEGO, CA  CLEAR     56  32  40 N3        29.99S
SAN FRANCISCO, MOCLDY    50  50 100 SW3       30.02S FOG
SAN JOSE, CA   CLEAR     41  35  79 CALM      30.02S
SEATTLE, WA    CLOUDY    55  49  80 S15       29.59F
TIJUANA, MEX   CLEAR     61  18  18 SE5       30.00F

$$

STATION/POSITION TIME  TEMP    WIND        PRES    VSBY  WAVE
                       AIR SEA DIR/SP/G                  HT/PER
                 (UTC) (F)     (DEG/KT/KT) (MB)    (MI)  (FT/S)
POINT ARGUELLO B NOT AVBL
WEST SANTA BARBA 1300   60 64  320/ 16/ 17 1013.9F         6/16
POINT CONCEPTION NOT AVBL
EAST SANTA BARBA 1300   63 65  160/  2/  2 1014.8F
SANTA MONICA BAY 1300   64 66   CALM  /  2 1015.0F         2/14




U.S. Dept. of Commerce
NOAA National Weather Service
1325 East West Highway
Silver Spring, MD 20910
E-mail: w-nws.webmaster@noaa.gov
Page last modified: May 16, 2007
NATIONAL WEATHER SERVICE: for Safety, for Work, for Fun - FOR LIFE